GFSSGP_sfc_temp_048.txt.gz
Temp
60 61 60 60 49 43 36 44 48 52 52 59 62 58 55 56 58 51 62 65 69 70 72 72 73 74 74 75 75 75 75 76 76 75 75 75 75 75 75 75 75 76 76 76 76 75 75 74 73
62 64 61 51 42 35 41 46 49 54 58 61 62 59 57 55 62 60 61 65 68 72 71 71 73 73 74 74 74 75 76 75 75 75 75 75 75 75 75 75 75 75 76 76 76 76 74 73 72
64 65 55 44 36 37 40 49 54 58 61 59 58 58 57 56 62 62 65 66 68 69 69 71 72 72 73 73 74 74 75 75 75 75 75 75 75 75 75 75 75 75 76 76 76 75 73 71 70
63 59 53 45 39 46 49 53 56 57 60 60 56 55 57 62 62 63 66 66 66 66 69 70 71 71 72 73 73 73 74 73 73 74 74 75 75 75 75 74 75 76 76 76 75 73 72 70 69
58 52 43 38 41 49 53 56 57 56 56 57 57 55 55 63 64 64 62 66 65 65 67 68 70 71 72 73 72 72 73 73 73 74 74 74 75 75 74 74 74 74 74 74 73 71 70 70 69
52 49 41 38 43 53 56 57 57 57 58 58 55 55 56 62 63 64 64 64 65 65 65 67 70 71 70 70 70 70 72 72 73 73 73 74 74 73 73 73 73 72 72 72 71 70 70 69 69
50 45 39 39 45 49 56 56 56 56 57 55 58 53 55 59 61 64 63 63 65 65 63 64 67 69 69 68 68 69 71 71 72 72 73 72 72 72 72 72 72 71 71 70 70 70 69 69 68
51 48 39 42 45 49 56 57 57 57 55 61 58 52 51 57 62 63 63 64 64 64 65 64 66 66 65 65 68 68 71 73 71 71 71 70 70 71 71 71 71 71 70 70 70 69 69 69 67
52 44 40 43 46 52 56 55 54 57 55 57 57 58 60 63 63 62 62 62 62 62 63 65 65 63 62 63 65 67 69 71 70 70 69 67 64 65 64 69 70 69 69 69 69 69 68 67 67
50 43 46 54 55 56 57 58 58 55 55 54 52 60 61 62 61 60 60 60 60 60 61 63 64 63 63 64 63 63 65 69 69 68 66 64 63 62 66 68 69 68 68 67 68 67 67 64 62
49 48 54 58 60 58 56 54 57 52 52 55 53 55 59 60 59 59 59 59 60 60 60 61 60 60 61 62 62 62 64 67 67 64 65 62 62 62 59 60 62 62 64 63 64 62 61 58 59
49 57 57 59 58 55 53 55 53 54 54 56 56 57 58 58 58 58 58 58 59 59 60 61 60 59 60 61 62 62 62 63 64 63 64 63 61 60 59 59 58 57 57 58 59 58 56 57 58
53 56 59 61 60 57 58 55 56 53 54 56 56 57 55 58 58 58 58 58 59 58 60 61 61 61 60 60 61 60 61 61 62 63 64 61 61 61 59 58 57 57 58 58 57 58 57 55 56
58 58 58 58 59 57 56 52 52 55 55 54 55 58 55 57 58 57 57 56 57 59 59 60 61 61 60 60 61 61 62 62 61 61 60 62 61 60 59 56 58 57 58 57 58 59 56 55 57
58 53 56 57 55 55 56 51 50 55 54 53 53 58 59 59 58 58 58 56 57 57 60 59 60 62 61 61 61 61 62 62 62 61 60 61 61 60 58 56 57 57 56 58 57 56 55 54 57
51 50 45 53 55 55 55 47 51 53 53 52 54 57 58 58 59 55 56 58 58 57 58 60 61 60 60 60 60 61 62 64 64 61 61 62 61 60 58 58 57 56 56 57 57 56 54 54 54
45 40 43 50 56 53 50 48 49 53 54 52 51 53 55 57 57 57 56 58 58 57 57 58 60 59 58 59 59 60 60 63 62 60 61 61 61 61 60 59 58 58 57 57 58 55 55 54 53
40 39 39 43 48 51 48 49 51 52 52 52 51 50 52 53 55 58 55 56 58 58 58 58 59 59 58 59 59 58 58 60 62 61 62 62 62 62 60 60 58 58 57 56 57 55 54 54 53
48 44 42 46 52 51 50 49 55 50 51 50 50 50 50 51 53 58 58 57 57 57 57 58 57 58 58 57 57 58 57 58 59 60 61 61 62 61 59 59 58 58 57 56 55 54 53 51 51
47 44 43 49 53 51 47 49 49 49 50 53 52 50 50 51 52 54 57 56 56 56 57 57 58 57 58 58 58 60 59 59 60 60 59 60 61 61 60 57 57 56 55 55 53 54 51 52 51
46 43 44 46 49 50 46 47 48 52 51 53 54 54 53 52 50 53 55 55 55 55 57 58 59 59 59 60 60 58 58 58 57 57 58 59 60 60 59 59 57 57 56 54 53 53 53 50 49
42 50 51 48 44 38 47 36 47 49 50 51 54 53 54 53 54 52 54 54 54 55 57 58 59 59 60 62 60 60 61 61 62 59 58 59 60 58 59 58 57 57 55 55 54 54 52 51 49
48 52 50 49 43 40 42 38 45 48 49 51 53 55 56 55 55 53 52 53 55 53 53 53 57 58 60 59 59 57 57 60 58 55 55 55 55 58 58 58 57 56 55 55 54 52 51 50 49
56 51 48 45 41 32 42 40 40 44 52 54 56 56 57 56 56 56 55 53 51 51 51 52 54 55 57 57 56 56 57 56 55 54 55 55 54 54 56 57 57 57 56 55 55 54 52 53 52
50 44 34 32 30 31 43 38 45 52 54 57 58 57 57 57 56 55 53 52 51 50 50 51 53 54 56 56 56 56 57 56 57 57 57 56 54 54 54 55 55 55 55 55 55 54 54 53 53
46 44 33 30 28 34 41 36 46 55 58 58 59 59 57 55 58 57 55 54 53 52 51 52 53 54 56 56 56 57 57 56 56 56 56 54 54 54 55 55 56 56 56 55 54 54 55 54 53
47 40 49 38 35 31 36 43 52 55 55 56 58 58 56 54 56 57 58 56 55 54 53 53 54 55 55 56 56 57 57 57 56 55 53 53 54 55 56 56 55 55 56 56 55 55 54 54 54
51 52 39 36 31 29 34 35 40 48 54 57 56 57 57 55 56 57 57 58 57 57 56 55 56 56 57 57 57 57 57 57 57 54 54 55 55 56 56 56 56 57 57 57 56 57 57 56 54
46 43 43 43 36 31 29 35 47 53 54 55 58 58 56 55 56 57 58 59 60 59 57 56 56 57 56 57 57 57 57 57 56 57 58 57 57 57 57 57 57 57 57 57 56 55 52 52 53
48 45 45 35 36 34 30 39 54 53 55 54 56 59 58 57 58 58 59 59 58 59 59 57 57 57 58 58 57 57 58 59 58 59 60 60 60 58 58 58 57 58 57 54 53 52 51 51 50

GFSSGP_sfc_temp_051.txt.gz
Temp
70 71 74 73 64 61 56 58 60 62 62 67 66 64 65 64 62 62 69 68 71 74 77 77 73 74 74 75 75 75 75 76 76 76 75 75 75 75 75 75 76 76 77 77 77 76 76 75 73
71 72 72 66 60 56 58 59 60 65 67 68 66 66 63 64 66 67 68 68 69 76 77 77 73 74 74 74 75 75 76 76 75 75 75 75 75 75 75 75 75 76 77 77 76 76 75 73 72
73 72 70 61 54 56 57 60 65 67 68 66 65 65 64 64 67 68 71 70 69 72 76 77 72 73 73 74 74 75 75 75 75 75 75 75 75 75 75 75 75 76 77 76 76 75 73 71 71
73 72 65 60 55 58 61 65 66 66 67 67 65 63 65 67 66 68 70 71 66 69 74 72 71 72 73 74 74 74 74 73 73 74 75 75 75 75 75 74 75 76 76 76 75 73 71 70 70
70 66 59 56 55 59 62 65 66 64 64 65 65 63 63 67 68 69 69 69 66 68 74 74 70 71 73 73 74 73 73 73 73 74 74 74 75 74 74 74 74 75 75 75 73 72 70 70 69
66 64 57 55 55 61 64 67 65 64 65 64 63 62 63 67 68 68 68 69 70 65 69 73 72 72 72 72 72 72 72 72 73 73 73 74 74 73 73 74 74 74 73 72 71 70 70 69 69
64 61 56 54 55 58 63 65 65 64 63 64 63 60 63 64 67 68 67 68 67 67 65 68 70 70 68 70 70 71 71 71 72 72 73 73 72 72 73 72 72 72 71 71 70 70 69 69 69
65 63 53 55 57 59 66 65 65 65 64 64 64 60 60 64 66 67 67 66 65 66 65 66 66 68 66 68 68 69 71 71 71 71 71 70 71 71 71 70 71 71 70 70 70 69 69 68 68
65 59 54 56 56 62 66 64 64 66 64 62 63 62 64 66 65 66 64 64 65 63 67 68 68 67 66 65 66 69 71 71 70 71 69 70 75 74 74 71 70 70 69 69 69 69 68 67 67
64 57 58 63 64 65 68 65 67 62 60 60 59 64 65 64 63 62 61 62 62 62 64 65 65 65 64 64 65 68 70 70 70 73 72 74 72 73 74 71 68 68 68 68 68 68 67 69 73
61 59 61 64 67 68 65 63 66 63 61 62 60 61 63 62 62 61 61 61 61 62 61 62 62 63 63 63 62 62 65 65 66 70 73 72 72 73 74 72 73 72 70 73 72 70 73 72 72
59 63 64 67 67 65 63 64 62 62 63 64 64 64 63 62 60 59 59 59 59 59 60 61 62 62 62 62 60 61 63 64 64 70 70 69 71 70 69 71 71 70 72 71 71 71 70 70 70
59 64 64 67 66 64 64 63 63 61 62 63 62 61 59 61 61 60 60 62 62 59 60 60 60 61 61 60 61 61 62 63 64 68 70 70 70 69 71 70 71 71 70 71 70 70 70 69 69
65 64 66 66 67 65 62 61 61 63 62 61 61 60 59 61 61 61 58 58 61 62 62 61 61 61 60 60 60 61 61 62 63 65 67 67 68 67 70 69 70 69 71 71 70 70 70 70 70
65 60 64 64 67 64 64 59 58 63 62 60 58 60 60 60 61 62 61 58 58 60 60 62 62 62 61 60 60 61 61 62 63 63 65 68 68 67 68 69 69 70 70 69 69 67 68 68 69
61 58 55 62 62 60 64 58 63 62 61 60 59 60 61 60 62 63 62 60 59 58 60 61 62 59 60 60 61 61 61 61 62 62 67 68 68 68 67 68 69 70 69 69 69 68 67 68 68
53 52 51 57 63 59 61 58 61 59 60 60 59 60 60 60 61 62 61 61 60 60 59 59 60 59 60 60 60 61 61 61 61 62 67 67 68 68 69 70 69 67 68 67 67 66 67 65 66
49 49 51 53 60 59 57 58 62 59 59 60 61 59 58 58 59 62 62 61 62 62 61 60 59 59 61 60 60 60 61 62 62 63 65 67 70 68 68 68 67 68 68 67 68 66 67 67 66
55 52 52 55 60 58 57 58 64 61 57 58 60 60 59 58 62 62 62 61 61 61 59 59 59 58 59 58 58 58 58 61 62 67 68 68 70 69 68 69 67 67 67 68 66 66 65 64 64
54 52 52 56 57 57 59 59 64 59 59 59 61 61 61 60 58 60 60 60 59 60 61 58 59 59 59 59 59 61 61 61 64 64 64 68 68 68 67 67 67 66 66 65 64 65 65 66 64
52 51 50 52 55 58 56 56 61 62 59 60 61 64 64 62 57 57 58 59 60 58 59 60 59 59 60 60 57 57 59 60 62 62 61 65 66 70 69 68 67 64 66 66 65 65 65 65 63
47 54 54 52 51 48 57 45 56 62 61 60 62 61 63 62 61 59 59 59 60 61 62 62 62 60 61 60 58 58 61 61 63 64 62 61 65 66 68 69 67 65 66 65 66 66 66 66 64
53 55 54 54 51 49 50 48 54 57 59 64 67 63 63 63 62 60 60 61 61 62 61 61 63 63 62 61 60 59 62 64 64 64 60 61 65 66 67 67 67 67 66 66 65 63 62 63 65
59 56 53 51 49 41 49 50 51 58 62 65 68 68 65 64 63 63 63 62 61 61 58 60 62 62 64 63 63 61 62 64 64 62 61 64 65 64 65 66 66 67 66 65 65 64 63 62 62
56 51 41 39 39 40 48 46 53 61 64 65 68 71 67 64 63 63 60 59 58 56 55 57 60 61 63 63 62 63 63 63 64 64 63 64 62 62 63 64 64 65 66 66 65 64 63 62 61
51 51 43 35 35 43 46 43 54 63 68 66 67 68 67 65 64 64 62 61 58 56 55 56 58 60 62 62 62 63 64 64 64 65 66 64 63 64 64 64 65 66 65 66 65 64 64 63 62
50 46 55 44 42 41 46 51 59 64 65 65 66 67 70 68 65 65 64 62 61 59 58 57 59 61 62 62 63 63 63 63 63 64 63 63 64 64 64 64 64 64 65 65 64 63 62 61 61
56 57 45 44 36 34 41 44 50 57 62 67 65 68 70 68 65 65 64 63 63 62 62 60 61 61 62 62 63 63 62 63 63 63 61 62 63 63 64 65 65 65 64 64 63 62 62 61 57
51 50 50 49 44 39 36 43 55 60 62 64 67 68 68 69 67 65 65 65 64 64 63 60 61 61 61 62 62 62 62 62 62 61 61 62 62 62 63 64 64 64 64 64 62 63 62 56 57
54 51 50 42 41 40 39 44 60 59 61 62 66 66 67 68 70 68 66 65 64 63 63 62 61 62 62 62 62 60 61 61 61 60 62 62 62 61 62 63 64 64 64 64 61 59 56 55 54

GFSSGP_sfc_temp_054.txt.gz
Temp
76 86 90 85 72 73 69 69 74 72 73 78 77 75 76 78 72 67 80 76 78 83 83 81 73 74 75 76 75 75 76 76 76 76 76 76 76 76 76 76 76 76 77 77 77 77 76 75 74
87 84 86 84 69 66 69 72 70 75 77 77 76 75 74 72 77 77 78 77 78 84 84 83 73 73 75 75 75 75 76 76 76 76 76 76 76 76 75 75 75 76 77 77 77 76 75 74 73
85 85 81 76 71 67 69 73 75 77 78 76 75 76 74 73 75 77 78 77 74 83 85 85 72 73 74 74 75 75 75 75 75 75 76 76 76 76 75 75 75 76 77 77 76 75 73 72 71
85 84 81 70 67 71 72 76 77 76 78 79 78 72 76 78 75 77 78 78 70 75 85 77 71 72 74 74 74 74 74 74 74 74 75 75 76 75 75 75 75 76 76 76 75 73 72 70 70
87 83 71 68 69 72 76 78 78 75 74 75 76 73 73 77 78 77 77 78 74 68 80 81 70 72 74 75 74 74 73 73 73 74 74 75 75 75 74 74 75 75 75 74 73 72 70 70 70
78 80 67 66 69 73 77 79 78 75 76 76 73 74 75 76 76 76 73 77 77 69 77 78 74 72 73 74 73 72 72 73 73 73 74 74 74 74 74 74 74 74 73 72 71 70 70 70 69
76 73 69 69 68 70 73 77 75 76 75 76 74 69 76 75 76 77 75 75 76 69 67 74 74 77 72 72 71 70 72 72 72 73 73 73 72 72 73 73 73 72 72 71 70 70 69 69 69
79 76 68 70 68 69 75 75 78 75 77 73 76 71 73 73 75 74 74 76 74 73 65 69 69 72 77 73 67 70 70 71 72 72 71 70 71 71 71 71 72 71 70 70 70 69 69 69 68
80 69 66 69 68 72 76 74 80 78 76 73 75 75 75 74 75 73 74 72 71 67 69 67 64 66 70 70 68 71 72 70 71 70 69 70 76 76 76 74 70 70 69 69 69 69 68 67 67
74 69 70 76 76 74 77 76 78 74 75 73 73 74 73 73 73 71 71 70 68 64 65 67 63 67 69 70 65 66 68 73 70 70 71 75 75 75 79 72 69 69 68 68 68 67 67 70 77
74 69 76 74 77 78 76 76 78 75 72 76 73 73 72 72 72 70 71 69 70 68 63 69 65 67 66 63 62 64 65 65 65 66 68 73 76 77 77 76 75 75 71 77 74 72 79 79 79
68 74 76 77 77 76 74 78 75 76 76 75 75 75 73 72 70 69 68 67 66 65 65 64 66 65 65 63 63 64 65 65 64 64 68 73 75 76 76 78 78 77 79 77 77 78 78 78 79
69 75 76 78 77 76 77 74 75 76 77 75 73 72 71 71 70 70 66 69 66 62 64 65 63 63 63 62 61 63 64 64 64 65 72 74 74 75 78 79 80 80 81 79 78 79 78 77 77
74 75 76 77 76 77 71 76 70 77 77 73 71 69 69 67 67 69 65 61 67 63 62 62 64 63 63 60 61 62 63 63 63 66 74 75 75 74 76 77 79 80 80 80 80 79 78 78 78
75 68 72 74 76 75 76 71 70 79 75 72 72 71 69 69 70 69 68 67 62 67 65 63 61 62 61 61 61 61 62 63 63 70 72 75 73 71 72 77 78 79 80 79 79 78 79 79 78
68 69 63 74 75 74 72 63 76 76 73 73 73 71 70 70 71 73 70 65 61 62 62 64 65 62 62 61 61 61 61 62 63 68 70 71 71 71 73 77 78 79 78 78 78 77 76 77 77
65 60 62 68 74 72 69 66 75 74 72 74 73 73 72 72 71 72 71 69 64 62 61 62 62 61 62 62 61 61 61 61 62 66 71 70 72 73 75 76 76 76 78 77 77 76 76 75 76
59 60 65 64 70 70 69 68 75 76 73 71 75 74 73 72 72 73 68 69 67 65 61 62 62 62 62 62 61 61 60 60 61 65 71 73 74 73 75 76 75 77 77 76 75 74 75 75 76
66 63 63 68 70 66 67 69 74 76 75 72 74 74 73 73 75 74 70 66 66 65 62 60 59 60 60 59 60 60 59 60 61 64 69 71 72 73 75 76 74 76 76 76 73 74 71 73 74
63 60 62 67 67 66 68 68 75 75 75 76 75 75 74 74 73 71 70 69 63 67 63 61 60 61 61 60 60 61 61 62 64 65 68 71 71 74 74 75 74 75 76 74 72 72 71 74 72
61 59 60 61 64 68 66 64 70 76 74 75 76 78 78 75 73 71 69 69 68 67 64 61 61 60 61 60 61 60 59 59 60 63 69 71 73 76 76 74 75 74 75 73 71 71 71 71 71
56 65 62 61 59 55 66 53 68 72 74 73 76 75 76 77 76 74 71 70 70 70 69 65 62 61 60 60 60 58 57 58 61 63 70 73 73 73 75 74 73 73 74 73 73 73 72 72 70
60 65 62 62 59 59 60 56 64 71 68 74 78 78 77 78 77 75 73 73 73 72 70 67 64 63 61 61 61 59 59 61 62 63 64 68 71 73 74 74 73 73 74 72 72 71 70 73 70
66 61 61 60 58 47 57 57 60 67 70 74 79 81 80 78 78 77 76 75 74 73 71 68 65 63 62 61 62 60 61 63 64 61 61 61 63 68 70 73 72 71 72 72 71 72 70 70 71
63 56 48 46 46 45 60 56 60 70 74 76 77 81 79 79 77 76 75 74 73 71 70 69 66 63 63 62 63 64 64 65 67 65 65 65 62 62 64 68 70 70 70 72 73 71 71 70 69
57 58 50 39 42 50 57 51 61 73 76 78 80 80 79 78 77 77 77 75 74 72 70 68 69 69 67 64 64 68 69 70 69 70 71 71 70 71 67 70 71 71 72 72 72 72 72 71 70
57 52 62 52 51 49 55 60 68 73 74 76 78 79 80 81 79 78 78 76 75 73 70 66 69 71 71 69 68 67 69 70 71 72 72 72 73 74 72 71 70 71 71 71 71 71 70 71 70
61 65 50 52 40 39 51 54 58 64 69 74 76 77 80 83 81 80 79 77 76 75 72 67 69 71 73 72 71 71 70 71 72 72 71 72 72 72 71 70 69 71 71 71 70 70 71 71 71
56 55 56 58 54 45 44 53 67 67 67 68 74 77 80 80 81 80 79 78 77 76 74 70 69 71 72 71 71 70 71 71 71 71 71 71 71 71 71 71 71 70 71 71 71 70 71 69 69
63 58 58 49 47 51 49 54 70 67 68 71 72 75 78 80 81 81 79 78 76 75 75 74 71 72 72 72 70 69 70 70 69 69 70 70 70 70 71 71 71 71 73 73 71 69 69 69 67

GFSSGP_sfc_temp_057.txt.gz
Temp
77 87 92 89 73 76 73 75 81 77 79 84 84 81 79 82 77 69 86 83 84 86 87 81 74 74 76 75 75 75 75 76 76 76 76 76 76 76 76 76 76 76 77 77 77 76 76 75 73
91 92 90 84 70 70 75 79 75 80 83 84 83 82 80 77 85 85 85 84 86 89 86 86 73 73 75 75 75 75 76 76 76 76 76 76 76 75 75 75 75 76 77 77 77 76 75 73 73
86 92 82 78 73 70 73 78 80 82 83 82 80 84 79 79 84 84 84 82 83 86 86 86 73 73 75 74 74 74 75 75 75 75 76 76 75 76 75 75 75 76 77 77 77 75 73 72 71
88 87 84 72 71 78 77 82 82 81 84 84 83 77 84 86 82 84 83 83 81 82 88 75 72 72 74 74 74 74 74 74 74 75 75 75 75 75 75 75 75 76 77 76 75 73 72 70 71
90 85 74 72 73 80 82 84 83 79 80 80 82 76 79 86 85 83 82 82 81 80 84 76 71 72 73 75 74 74 74 73 74 74 74 75 75 75 74 74 75 75 75 75 73 72 71 70 70
80 83 70 70 75 80 82 85 83 80 81 82 79 79 81 84 83 83 79 80 81 79 79 77 74 71 73 74 73 71 73 73 73 73 74 74 74 74 73 74 74 73 73 72 71 70 70 70 70
77 77 71 74 75 76 79 84 80 81 80 80 83 74 83 83 84 84 81 79 81 79 77 76 77 76 70 70 69 68 71 72 72 72 72 73 72 73 73 73 73 72 71 70 70 70 70 70 69
83 79 72 75 73 74 83 81 85 81 80 83 84 75 77 81 81 80 80 81 82 76 72 74 75 75 76 74 68 67 68 72 71 72 71 71 71 72 72 72 71 71 70 70 70 69 69 69 68
87 72 69 74 75 77 83 78 87 87 82 83 83 82 83 81 82 79 80 76 78 76 71 67 72 73 75 76 69 67 68 72 71 71 69 69 77 77 75 72 70 70 68 69 69 68 68 67 67
77 71 73 83 83 79 81 81 83 82 81 80 82 85 81 79 79 78 76 70 72 73 70 69 67 71 73 71 66 68 67 68 71 77 75 71 71 75 78 71 68 68 68 68 68 67 66 70 76
78 70 80 81 82 84 81 80 85 80 76 81 79 82 81 79 78 75 76 75 74 73 72 65 66 67 71 66 66 64 70 69 68 69 68 67 68 74 73 71 71 73 70 72 72 71 76 77 77
73 79 81 83 83 81 79 83 80 82 81 84 83 82 81 79 77 75 75 74 72 73 70 67 65 67 68 67 67 65 63 63 64 65 66 65 68 71 71 73 74 73 75 74 74 76 79 78 79
75 78 82 83 83 81 82 79 79 81 87 85 82 79 80 79 78 78 77 73 71 70 70 64 64 68 67 66 66 64 64 63 63 63 65 64 71 70 74 73 74 77 79 77 77 79 79 78 79
80 78 79 82 81 81 77 78 80 81 87 82 80 79 79 78 77 78 75 73 70 66 62 64 62 63 64 63 63 63 63 63 63 62 64 66 74 70 73 74 78 80 81 80 80 80 79 79 79
79 72 76 78 80 78 80 73 75 84 86 81 80 80 79 78 79 77 78 74 70 70 67 63 63 63 62 62 62 62 62 63 62 62 64 69 73 73 77 78 79 81 82 80 80 79 80 79 79
71 72 65 77 79 80 78 65 79 86 81 80 81 80 78 78 79 80 79 77 72 66 67 66 63 61 61 62 62 62 62 62 62 62 66 72 74 74 76 78 79 80 80 80 80 78 78 78 78
68 61 65 70 81 78 75 68 80 83 80 79 81 81 79 79 79 80 80 78 73 67 64 66 65 63 62 62 61 61 61 61 62 63 72 73 73 75 74 75 76 77 79 79 79 77 77 76 77
61 63 67 68 77 75 73 71 78 82 80 79 81 82 81 79 79 80 78 78 76 69 65 66 65 61 62 61 60 60 60 61 62 65 70 71 73 72 72 73 73 74 77 77 77 75 77 77 77
68 68 67 72 77 72 71 72 77 81 82 80 80 81 81 80 83 81 77 76 75 71 65 64 62 62 62 60 59 58 58 59 60 63 70 70 72 73 71 71 71 71 75 75 76 75 74 75 77
66 64 65 71 74 70 70 71 77 80 81 82 81 81 81 81 81 79 76 74 73 70 66 62 62 61 62 62 63 62 60 60 61 62 66 72 73 73 72 72 71 70 74 75 74 73 72 74 75
65 62 64 64 71 71 69 67 72 79 82 82 83 84 85 82 80 78 76 73 71 71 66 62 62 62 64 63 65 63 63 60 59 60 63 68 71 73 72 71 72 71 75 74 73 73 72 71 73
59 69 67 65 64 57 72 55 69 75 77 79 80 82 83 84 83 81 77 75 72 72 70 65 62 63 65 63 61 61 60 59 61 62 64 72 71 71 70 75 75 75 75 75 73 75 73 73 71
62 70 68 65 62 61 62 58 66 75 73 77 81 82 83 84 84 82 79 78 77 75 71 69 62 62 63 64 62 61 62 64 63 62 62 69 70 65 69 75 75 74 75 74 74 72 71 73 71
70 65 65 64 62 50 59 60 62 70 74 77 82 84 85 84 85 84 83 81 78 77 74 68 65 61 62 63 63 62 61 60 61 60 60 68 69 69 68 75 73 73 72 72 72 71 71 71 72
66 60 50 47 48 46 63 59 62 74 77 78 79 83 85 86 84 83 82 80 79 76 74 70 67 64 61 61 61 63 65 61 63 64 63 62 63 65 68 71 71 72 71 70 68 68 69 70 69
61 60 50 40 43 51 64 54 64 77 79 80 83 84 84 84 84 84 83 81 79 77 75 73 70 69 64 62 62 65 67 66 68 66 68 67 64 66 67 71 73 73 73 72 71 71 70 68 68
59 54 64 54 55 50 59 64 73 75 76 78 80 82 83 84 84 83 84 83 80 78 75 74 74 73 70 64 63 63 64 65 68 69 70 70 70 71 70 70 71 72 72 72 71 71 70 71 70
61 67 53 55 41 39 53 56 58 67 71 75 77 80 82 85 86 85 85 84 82 81 79 75 76 75 74 71 67 65 65 66 70 70 71 71 71 72 71 70 70 70 71 71 71 70 71 70 70
56 55 58 59 55 44 43 53 71 68 69 70 75 80 80 81 82 85 86 86 84 83 80 76 75 76 76 74 72 69 69 68 68 70 72 73 73 73 73 73 72 72 72 72 71 70 70 70 70
63 58 57 49 47 54 51 52 72 71 71 72 74 78 81 82 84 85 85 84 84 82 81 78 75 75 76 77 75 72 72 72 70 70 72 73 73 74 74 74 74 73 73 73 72 70 71 70 69